Belleville, IL

3:16 AM CDT on May 27, 2017 (GMT -0500)
Scott Air Force Base-Midamerica

Weather History for KBLV - December, 2013

Change the Weather History Date:

Saturday, December 7, 2013

  Actual Average Record
Temperature  
Mean Temperature 15 °F -  
Max Temperature 22 °F 45 °F 71 °F (1966)
Min Temperature 8 °F 29 °F 5 °F (1950)
Degree Days  
Heating Degree Days 50    
Moisture  
Dew Point 7 °F    
Average Humidity 66    
Maximum Humidity 83    
Minimum Humidity 51    
Precipitation  
Precipitation 0.00 in - - ()
Sea Level Pressure  
Sea Level Pressure 30.64 in    
Wind  
Wind Speed 8 mph (NNE)    
Max Wind Speed 10 mph    
Max Gust Speed -    
Visibility 10 miles    
Events      
Averages and records for this station are not official NWS values.
T = Trace of Precipitation, MM = Missing Value Source: NWS Daily Summary

Daily Weather History Graph

Daily Weather History Graph

Search for Another Location

Airport or City:

Trip Planner

Search our weather history database for the weather conditions in past years. The results will help you decide how hot, cold, wet, or windy it might be!

Date:

Astronomy

Dec. 07, 2013 Rise Set
Actual Time 7:03 AM CST 4:38 PM CST
Civil Twilight 6:34 AM CST 5:07 PM CST
Nautical Twilight 6:01 AM CST 5:40 PM CST
Astronomical Twilight 5:28 AM CST 6:12 PM CST
Moon 10:51 AM CST (12/7) 10:16 PM CST (12/7)
Length of Visible Light 10h 33m
Length of Day
9h 34m
Waxing Crescent, 29% of the Moon is Illuminated
Dec 7
Waxing Crescent
Dec 9
First Quarter
Dec 17
Full
Dec 25
Last Quarter
Jan 1
New

Hourly Weather History & Observations

Time (CST) Temp. Windchill Dew Point Humidity Pressure Visibility Wind Dir Wind Speed Gust Speed Precip Events Conditions
12:58 AM 13.8 °F 1.8 °F 3.9 °F 65% 30.62 in 10.0 mi NNW 9.2 mph - N/A   Clear
1:58 AM 13.1 °F 0.1 °F 4.5 °F 68% 30.63 in 10.0 mi North 10.4 mph - N/A   Clear
2:58 AM 12.2 °F -1.0 °F 4.6 °F 72% 30.65 in 10.0 mi North 10.4 mph - N/A   Clear
3:58 AM 11.1 °F -2.4 °F 4.5 °F 75% 30.65 in 10.0 mi NNW 10.4 mph - N/A   Clear
4:58 AM 9.1 °F -1.9 °F 3.6 °F 78% 30.67 in 10.0 mi NW 6.9 mph - N/A   Clear
5:58 AM 9.1 °F -0.7 °F 3.9 °F 79% 30.69 in 10.0 mi NNW 5.8 mph - N/A   Clear
6:58 AM 8.2 °F -0.3 °F 3.9 °F 83% 30.71 in 10.0 mi NW 4.6 mph - N/A   Clear
7:58 AM 9.5 °F -1.5 °F 4.1 °F 79% 30.72 in 10.0 mi NNW 6.9 mph - N/A   Clear
8:58 AM 13.3 °F 0.3 °F 5.2 °F 70% 30.73 in 10.0 mi North 10.4 mph - N/A   Clear
9:58 AM 16.2 °F 3.9 °F 5.2 °F 62% 30.75 in 10.0 mi NNE 10.4 mph - N/A   Clear
10:58 AM 18.1 °F 7.9 °F 5.7 °F 58% 30.74 in 10.0 mi NNE 8.1 mph - N/A   Clear
11:58 AM 20.5 °F 10.0 °F 6.8 °F 56% 30.71 in 10.0 mi NNE 9.2 mph - N/A   Clear
12:58 PM 20.7 °F 11.9 °F 7.2 °F 56% 30.69 in 10.0 mi NNE 6.9 mph - N/A   Clear
1:58 PM 22.3 °F 12.2 °F 7.5 °F 53% 30.66 in 10.0 mi NNE 9.2 mph - N/A   Clear
2:58 PM 22.5 °F 14.1 °F 6.6 °F 51% 30.64 in 10.0 mi NNE 6.9 mph - N/A   Clear
3:58 PM 21.6 °F 16.8 °F 7.5 °F 55% 30.64 in 10.0 mi NNE 3.5 mph - N/A   Clear
4:58 PM 20.1 °F - 7.9 °F 59% 30.64 in 10.0 mi NNE 2.3 mph - N/A   Clear
5:58 PM 17.6 °F 10.7 °F 10.6 °F 74% 30.62 in 10.0 mi NNE 4.6 mph - N/A   Clear
6:58 PM 18.3 °F 9.1 °F 8.8 °F 66% 30.55 in 10.0 mi NE 6.9 mph - N/A   Clear
7:58 PM 18.1 °F 12.9 °F 9.0 °F 67% 30.58 in 10.0 mi NNW 3.5 mph - N/A   Clear
8:58 PM 19.6 °F 11.7 °F 9.1 °F 64% 30.54 in 10.0 mi NE 5.8 mph - N/A   Mostly Cloudy
9:58 PM 20.7 °F - 9.5 °F 62% 30.57 in 10.0 mi East 1.2 mph - N/A   Mostly Cloudy
10:58 PM 20.7 °F 14.2 °F 11.5 °F 68% 30.53 in 10.0 mi NE 4.6 mph - N/A   Clear
11:58 PM 21.2 °F 12.6 °F 11.5 °F 66% 30.49 in 10.0 mi ENE 6.9 mph - N/A   Clear